Weather in Mikhaylovka

Russia / Voronezh Oblast     50°31′39″N   40°14′11″E
temp.,
°C
wind,
m/s
gust,
m/s
humid.,
%
clouds,
%
prec.,
mm/h
press.,
hPa
HPBL,
m
25 february, thu
thu2500:00−13s489296 0.1 1038372
03:00−12ssw5109498 0.5 1035392
06:00−11ssw61093100 0.3 1033420
09:00−9sw61192100 0.5 1031455
12:00−6sw61092100 0.2 1029489
15:00−3sw61193100 0.3 1025443
18:00−2sw71395100 0.3 1022396
21:000wsw51296100 1.1 1021399
26 february, fri
fri2600:00+1w51199100 0.5 1020284
03:00+1w51098100 1.1 1020341
06:00+1w41099100 0.3 1019263
09:00+1w3899100 0.6 1020200
12:00+2w510100100 0.0 1018259
15:00+3wsw512100100 0.0 1017334
18:00+3w51398100 0.0 1015404
21:00+2w61298100 0.2 1014346
27 february, sat
sat2700:00+2wsw61296100 0.2 1013337
03:00+1w51294100 0.2 1012402
06:00+1w51194100 0.0 1010431
09:00+1w51295100 0.0 1010474
12:00+2w61193100 0.0 1009698
15:00+1w61196100 0.1 1009591
18:00+1wnw61197100 0.1 1009530
21:00+1wnw51097100 0.1 1010466
28 february, sun
sun2800:000wnw5998100 0.1 1009392
03:000nw489799 0.2 1011351
06:000nnw479391 0.1 1012450
09:00−1n588394 0.1 1013711
12:00−2n467697 0.0 1015727
15:00−2nnw577598 0.0 1016781
18:00−2nnw5781100 0.1 1018815
21:00−3n5882100 0.1 1021716
1 march, mon
mon100:00−3n4782100 0.1 1022748
03:00−4n478499 0.1 1023696
06:00−5nnw5108278 0.0 1025668
09:00−5n587948 0.0 1027713
12:00−3n5869100 0.0 1028869
15:00−2n576699 0.0 1029900
18:00−3nnw3675100 0.0 1030711
21:00−3nw3571100 0.0 1031828